Theta_e
319 317 317 315 314 316 320 323 326 326 325 315 316 315 314 313 313 313 314 314 314 319 317 318 316 318 315 313 312 312 316 319 320 314 316 313 315 313 314 317 321 323 328 330 334
318 317 316 315 314 315 321 323 326 325 324 316 318 316 315 311 312 313 314 315 315 322 318 318 322 318 318 314 313 312 316 319 317 312 315 313 313 312 318 323 329 329 327 331 333
318 316 316 316 314 316 321 324 325 325 323 317 320 320 320 316 319 317 313 319 320 322 321 320 319 320 320 319 314 313 315 317 318 312 313 313 311 311 315 319 325 328 330 329 333
318 317 316 316 315 316 320 323 322 324 321 318 318 323 320 318 316 317 312 315 317 323 323 324 323 322 323 321 317 314 313 313 315 314 312 312 310 313 313 314 318 327 330 329 333
318 317 316 316 315 316 319 321 322 321 322 320 319 320 318 318 321 316 313 316 315 319 322 325 324 323 325 321 320 314 313 312 311 312 312 311 312 312 312 311 324 328 330 329 331
318 318 316 315 315 316 318 320 322 323 322 319 319 320 315 322 319 317 315 314 313 315 323 324 325 323 322 322 322 317 317 311 311 311 311 312 312 312 311 315 327 329 329 329 328
316 318 317 315 315 316 317 319 321 321 321 321 320 317 313 321 314 317 315 317 315 313 320 320 321 325 320 322 320 319 321 316 311 312 312 310 313 311 309 321 328 329 328 327 328
315 317 317 315 315 316 318 319 320 320 320 319 318 312 316 317 311 314 313 320 318 313 312 316 319 322 320 317 316 319 312 313 311 311 311 311 313 311 307 324 328 327 324 326 325
311 317 317 315 315 316 318 319 319 319 318 317 315 310 309 310 310 314 315 319 319 315 311 313 320 318 317 314 318 314 317 310 311 309 310 311 311 310 305 318 326 324 323 325 326
308 316 316 315 315 317 318 318 318 317 317 315 313 308 308 309 310 311 315 318 315 312 312 309 315 318 317 314 320 317 311 311 311 310 310 310 310 309 305 310 318 318 317 320 324
308 312 316 315 316 317 318 317 316 317 313 311 311 309 307 308 309 311 312 312 315 316 313 309 311 315 319 319 311 310 311 312 310 309 310 308 310 309 305 305 305 306 305 308 315
310 312 316 315 316 317 316 315 312 312 314 311 310 309 308 309 309 308 310 310 312 317 311 310 311 312 312 310 311 309 311 311 310 309 309 308 309 308 305 304 305 304 303 302 305
312 310 316 315 316 316 315 310 311 311 308 309 309 309 308 308 308 308 307 308 310 311 311 311 310 310 311 311 311 309 311 309 312 309 308 308 309 309 308 305 306 304 303 302 304
308 311 315 315 316 315 313 311 311 307 306 308 310 308 309 307 308 308 308 307 308 311 310 311 310 311 311 313 312 312 307 309 309 308 310 307 310 305 306 307 305 304 303 303 302
306 309 313 315 316 314 312 310 310 308 309 307 307 308 308 308 308 308 308 307 307 308 307 310 310 312 313 313 311 312 307 309 309 308 307 307 306 305 304 306 306 304 304 303 302
305 310 310 315 315 314 311 310 309 311 309 309 308 309 310 308 308 306 308 307 305 307 308 308 307 311 313 310 310 307 308 306 306 306 308 307 307 306 304 305 306 308 304 303 302
304 307 310 315 315 313 311 310 311 308 306 308 309 309 308 308 308 308 309 308 307 308 310 306 307 307 307 309 307 308 309 311 311 310 311 304 304 310 304 302 303 304 305 303 301
304 306 311 315 314 312 312 310 303 307 307 306 309 308 309 308 308 307 309 310 306 306 307 310 311 306 306 309 309 308 309 310 310 310 308 304 306 306 303 302 301 301 301 301 302
304 308 312 314 313 311 312 312 309 307 307 309 309 309 308 308 308 307 309 310 307 303 308 309 309 307 306 306 309 307 307 307 307 298 307 305 303 303 304 303 304 305 303 303 304
303 307 310 313 312 311 312 312 308 307 307 309 309 308 309 309 308 307 308 309 309 304 304 306 309 308 307 307 307 308 306 309 307 308 308 306 305 305 304 306 304 305 305 304 304
299 307 304 306 312 313 314 310 307 307 307 307 307 308 306 308 307 308 308 306 308 305 305 306 308 309 307 308 308 306 307 306 308 309 309 306 305 302 304 306 305 305 305 305 304
297 304 303 302 312 311 312 308 308 308 307 307 306 305 306 307 307 307 306 307 306 304 306 307 307 308 308 307 307 307 307 308 311 309 304 307 306 303 302 302 303 305 306 304 304
298 298 301 300 311 311 311 309 308 309 309 307 307 307 305 308 309 307 306 305 306 307 307 308 308 308 310 308 307 307 306 306 306 307 309 308 309 301 304 304 304 305 305 305 303
300 304 299 300 301 311 312 311 309 310 311 309 307 306 307 308 307 308 307 307 305 307 309 309 309 309 309 308 307 309 307 305 307 309 307 307 307 305 304 305 306 306 305 305 304
299 300 297 305 304 310 311 310 309 311 311 311 310 307 308 308 308 308 309 309 307 309 308 308 309 307 307 307 307 308 309 307 307 308 308 309 305 306 304 304 304 305 305 305 305
298 301 299 301 302 308 310 310 310 308 311 313 309 307 308 308 308 308 309 308 309 308 308 306 305 306 307 307 307 308 308 308 308 308 308 307 306 303 302 303 305 305 306 307 306
296 298 298 301 303 308 309 309 309 307 307 308 309 309 309 311 308 307 307 307 307 308 307 308 304 303 305 306 307 309 307 307 307 308 308 307 308 302 302 303 304 305 306 307 307
Wind_Speed
41 40 39 39 37 38 37 34 32 35 31 32 26 20 18 17 17 17 10 8 5 11 19 15 10 1 11 5 4 3 3 3 5 7 4 5 4 3 1 7 1 2 6 9 30
42 41 40 39 37 37 36 32 36 34 31 36 28 22 18 17 12 8 20 11 4 16 19 11 5 8 3 3 4 4 2 8 5 5 6 7 6 9 5 4 1 2 3 27 30
39 39 38 39 36 36 36 34 36 34 32 35 28 22 18 16 5 5 14 23 13 18 15 7 11 4 3 6 5 2 4 3 3 4 6 8 7 4 8 3 6 8 15 21 25
38 39 38 38 37 36 37 34 34 33 33 36 28 21 18 12 9 13 19 19 18 14 10 10 4 4 5 2 3 3 2 4 5 2 7 8 8 5 5 6 8 12 26 22 20
35 37 37 37 36 36 35 34 34 31 30 35 29 22 15 3 4 9 25 26 21 14 16 6 9 5 6 5 2 3 5 5 6 4 6 7 3 6 5 2 8 12 20 17 19
24 35 36 35 36 35 33 33 31 30 29 35 30 25 7 11 11 6 29 27 29 19 12 10 6 3 8 5 5 4 11 9 5 4 1 6 1 2 4 5 8 14 15 16 19
22 27 35 35 35 35 34 32 32 31 31 31 30 24 4 15 9 15 22 30 26 19 12 9 6 2 7 5 1 6 9 13 6 2 2 5 1 6 3 8 12 12 13 11 15
11 23 35 34 36 34 35 35 32 30 30 28 28 7 6 23 5 18 19 25 18 18 19 19 10 2 4 0 6 4 5 4 5 5 2 4 9 6 6 11 11 9 8 8 8
19 20 35 35 35 37 37 35 34 30 30 29 21 3 4 7 11 11 18 20 20 8 9 9 7 4 4 5 4 6 10 7 6 6 3 4 7 6 7 9 10 9 9 9 8
18 14 35 37 36 39 38 36 31 28 27 18 9 3 3 6 9 13 15 24 10 8 5 5 4 4 4 8 9 9 8 4 7 5 2 4 7 2 6 9 12 10 8 8 9
15 24 38 40 40 41 44 37 11 6 15 6 9 3 6 7 12 11 19 18 10 8 12 7 10 19 17 12 5 5 7 5 4 3 5 8 8 9 5 3 7 9 8 9 13
17 29 39 42 43 46 40 10 11 10 8 2 13 2 6 15 5 4 23 8 9 16 15 4 22 12 8 8 9 8 7 6 1 1 3 3 11 4 6 7 9 12 10 11 6
12 24 38 44 44 42 30 12 14 39 6 4 6 4 6 4 6 10 12 5 12 17 20 14 4 7 11 7 13 10 11 5 4 4 1 3 7 4 6 4 4 8 7 6 12
9 18 32 45 37 34 18 25 35 6 4 5 5 6 5 8 4 8 13 8 5 17 12 7 13 8 5 15 14 17 4 6 5 5 5 4 5 6 7 10 7 9 9 11 11
14 18 19 50 31 19 28 33 34 5 6 11 5 10 8 7 11 7 10 3 10 9 8 10 14 12 17 19 10 11 6 6 4 3 3 2 1 7 1 10 10 11 13 12 10
13 10 17 43 28 33 36 30 14 4 6 10 10 10 9 6 3 7 6 3 6 6 5 9 3 17 21 11 14 7 4 6 4 2 3 8 7 5 7 8 9 18 11 12 9
12 11 23 37 19 44 36 16 4 6 7 8 9 15 13 6 4 8 17 8 8 8 16 4 4 2 5 8 4 9 8 2 1 2 9 0 4 13 5 8 8 10 13 12 9
13 13 24 31 47 50 27 10 5 13 12 4 8 16 13 9 3 6 14 12 7 6 6 13 9 9 6 7 9 7 10 5 7 4 2 2 7 6 9 4 8 8 8 8 11
13 10 13 31 52 46 17 18 12 12 9 10 11 17 5 7 8 6 13 23 11 9 7 10 10 2 1 3 11 5 7 6 6 2 3 5 7 9 5 9 7 9 6 11 11
5 2 1 42 47 31 18 22 5 6 11 18 9 13 13 22 8 12 16 18 15 10 4 6 5 2 1 2 1 9 10 3 2 4 4 4 5 5 5 11 12 9 13 9 6
4 2 3 10 43 14 20 20 4 4 16 8 7 8 9 14 14 18 19 4 20 10 3 5 4 2 4 6 8 3 4 2 3 5 6 1 6 9 14 17 14 11 4 6 8
2 3 6 10 12 11 18 10 4 6 2 5 6 6 12 15 4 12 15 12 15 11 7 4 5 4 4 0 0 2 6 12 7 9 1 3 7 3 9 9 6 6 8 7 6
1 0 5 10 12 15 14 4 4 7 8 8 5 5 5 11 7 6 7 7 14 17 14 8 2 4 4 2 1 5 4 4 5 4 8 5 10 2 4 6 5 6 6 8 8
1 0 2 3 3 19 20 19 10 1 5 5 6 6 8 8 1 9 8 4 8 12 7 7 4 8 12 8 8 5 6 5 6 4 5 10 11 6 6 7 3 4 6 7 9
2 1 2 2 2 13 15 21 7 7 3 4 2 8 11 5 6 6 5 4 3 5 6 5 6 5 3 4 7 6 10 14 10 19 11 26 13 16 11 7 5 6 6 8 9
3 1 2 4 2 13 12 23 23 4 6 5 8 7 6 8 9 8 8 6 7 2 16 3 5 5 3 3 3 5 10 13 19 18 21 13 20 8 6 5 5 8 9 11 13
1 4 2 4 3 14 8 15 24 9 3 3 6 6 5 5 3 5 7 7 10 10 14 11 6 4 8 4 5 3 13 13 14 18 19 18 20 6 6 8 9 9 11 15 17
Wind_Direction
200 199 198 194 197 205 202 197 193 187 185 180 176 171 169 165 160 169 179 196 234 185 165 153 147 251 330 4 339 98 73 174 182 155 222 170 133 125 84 116 151 154 156 164 161
199 200 198 195 197 204 199 195 189 187 184 181 177 170 159 158 155 195 202 195 131 171 159 151 106 99 338 358 15 91 131 204 195 188 190 170 159 159 131 116 38 59 53 137 154
199 199 200 195 194 199 195 190 189 185 183 183 177 169 161 151 110 233 198 210 184 163 179 166 126 82 93 359 342 1 201 236 252 224 163 164 148 160 125 207 210 181 151 146 157
198 200 198 195 194 194 194 189 179 179 182 183 179 172 162 156 172 174 180 176 163 167 157 134 115 97 131 164 331 349 331 311 308 213 149 172 132 149 172 213 185 169 159 154 166
198 199 197 195 193 191 191 191 175 177 182 184 178 171 160 155 224 166 163 160 159 155 183 186 152 142 168 190 342 185 319 326 329 298 117 122 213 180 213 55 124 140 159 164 173
203 195 195 193 189 189 188 186 177 177 178 180 182 177 163 187 204 143 166 160 169 163 159 173 197 203 139 193 178 343 325 325 336 317 144 138 116 176 216 124 133 157 174 176 179
208 198 196 192 189 186 183 178 179 176 170 173 175 176 204 188 189 190 183 181 181 166 155 203 278 145 142 111 254 10 331 326 278 229 225 131 54 236 152 152 160 182 185 189 191
229 217 192 189 185 183 178 173 172 169 168 165 169 175 198 217 190 178 163 180 191 174 162 189 204 91 95 328 51 47 311 288 291 168 204 122 233 236 156 149 182 191 198 201 207
249 215 188 187 182 179 173 170 162 163 158 154 159 176 219 185 196 186 174 165 172 146 135 185 170 210 144 128 94 216 213 207 276 210 143 156 244 231 158 167 193 201 205 209 210
262 207 185 185 179 175 165 160 151 145 134 127 141 102 225 189 181 177 171 171 138 84 82 210 164 213 177 182 199 178 210 218 195 206 171 185 255 260 194 170 199 208 211 215 213
241 223 184 182 175 168 149 127 123 145 176 167 169 224 147 141 138 163 159 133 119 154 182 192 190 210 208 192 255 200 187 210 228 176 151 209 229 237 200 204 218 227 223 221 223
228 217 185 177 173 162 152 164 146 144 139 302 169 311 134 140 104 148 160 136 152 173 190 182 220 208 203 173 213 247 203 205 297 36 146 167 244 257 186 220 215 210 218 225 216
221 221 189 177 169 159 163 148 131 136 134 206 179 188 149 131 137 178 161 119 156 174 196 199 259 149 175 182 217 236 217 204 182 128 36 119 291 226 231 221 223 232 230 231 215
261 228 192 174 163 163 168 153 155 174 106 175 189 245 150 140 128 160 177 134 168 186 187 233 250 157 166 226 210 239 212 168 148 131 211 155 265 255 228 232 207 235 224 230 212
283 217 212 175 157 169 162 159 175 342 136 161 174 162 149 157 136 217 176 85 163 165 161 199 192 168 217 216 208 234 164 174 175 167 128 200 180 258 106 241 241 235 230 231 218
286 241 246 178 162 163 161 155 138 91 226 178 152 169 137 166 188 131 150 116 146 130 198 199 175 171 206 206 214 163 82 47 57 79 259 210 182 244 196 203 228 233 227 224 203
289 259 248 173 161 160 152 137 127 188 156 180 180 169 154 135 113 168 178 177 161 143 188 162 189 184 142 166 149 178 142 207 228 186 231 228 201 239 227 236 228 226 231 215 182
295 262 225 177 157 162 150 154 149 183 179 141 136 149 172 133 159 176 159 197 247 164 144 170 209 168 171 205 188 171 187 171 183 209 229 36 232 243 223 258 244 244 242 183 182
324 256 207 176 160 158 157 181 200 182 144 121 108 152 151 185 134 148 188 197 188 191 159 174 200 71 218 160 156 186 198 180 97 17 61 208 284 300 262 274 255 244 216 204 187
318 22 175 171 159 162 173 189 179 173 111 136 149 189 174 182 143 167 181 199 206 190 217 198 154 128 162 129 331 188 157 141 49 143 246 264 280 234 267 235 240 225 226 205 177
25 110 207 183 156 177 186 189 133 168 131 135 147 171 186 180 187 182 185 248 193 174 194 153 115 146 129 210 171 157 171 106 119 157 194 241 259 212 213 219 228 231 197 178 174
116 165 235 307 170 186 190 160 129 138 161 136 118 129 175 170 132 186 191 203 179 144 175 216 116 143 182 223 28 327 184 193 200 212 210 170 260 241 239 270 269 219 187 181 172
334 305 275 266 175 183 172 176 145 147 186 149 135 162 158 164 168 165 159 212 184 166 173 186 165 89 36 5 200 210 195 164 120 76 208 165 251 257 266 281 279 226 194 174 154
217 65 331 332 329 171 170 183 173 192 159 145 132 117 120 166 94 169 166 168 195 190 140 119 143 166 199 210 133 191 185 172 171 183 196 233 242 282 278 254 260 222 173 164 172
2 57 23 245 182 176 178 178 144 167 121 162 85 170 157 139 150 153 139 116 67 164 139 153 196 169 210 172 175 188 186 182 186 220 194 242 227 236 233 241 232 188 167 166 187
132 56 14 345 141 186 171 192 184 148 138 189 150 176 170 150 180 168 136 179 173 176 187 182 222 130 175 131 171 181 188 188 213 225 240 258 266 237 219 137 185 199 180 198 203
106 94 53 345 268 179 190 177 186 144 46 67 147 127 135 134 110 159 155 136 147 155 180 180 135 108 223 141 98 339 207 194 214 216 230 231 243 179 204 209 209 198 197 209 210